Terminal Aerodrome Forecast
Issued by NWS Memphis, TN

Home | Current Version | Previous Version | Text Only | Print | Product List | Glossary On
Versions: 1 2 3 4 5 6 7 8 9 10 11 12 13 14 15 16 17 18 19 20 21 22 23 24 25
000
FTUS44 KMEG 190200 AAA
TAFMEM
TAF AMD
KMEM 190258Z 1903/1924 07004KT P6SM BKN080
     FM190700 06003KT P6SM SKC
     FM191500 03008KT P6SM SKC=

USA.gov is the U.S. government's official web portal to all federal, state and local government web resources and services.